This is the latest recevied weather packets stored in our database for station/object KQ4HEI. If no packets are shown the sender has not sent any weather packets the latest 10 day(s).
| Time | Temp. | Humidity | Pressure | Rain* | Wind** | Luminosity | Snow |
|---|---|---|---|---|---|---|---|
| 1777609892 | 18.33° C | 94% | 1010.9 hPa | 0 mm | - | - | - |
| 1777609292 | 18.33° C | 94% | 1011.1 hPa | 0 mm | - | - | - |
| 1777608691 | 18.33° C | 94% | 1011.4 hPa | 0 mm | - | - | - |
| 1777608092 | 18.33° C | 93% | 1011.4 hPa | 0 mm | - | - | - |
| 1777607491 | 18.33° C | 93% | 1011.4 hPa | 0 mm | - | - | - |
| 1777606893 | 18.33° C | 93% | 1011.4 hPa | 0 mm | - | - | - |
| 1777606291 | 18.33° C | 92% | 1011.4 hPa | 0 mm | - | - | - |
| 1777605691 | 18.89° C | 91% | 1011.2 hPa | 0 mm | - | - | - |
| 1777605091 | 18.89° C | 90% | 1011 hPa | 0 mm | - | - | - |
| 1777604491 | 18.89° C | 90% | 1011 hPa | 0 mm | - | - | - |
| 1777603891 | 18.89° C | 89% | 1010.9 hPa | 0 mm | - | - | - |
| 1777603291 | 19.44° C | 88% | 1010.9 hPa | 0 mm | - | - | - |
| 1777602693 | 19.44° C | 88% | 1010.6 hPa | 0 mm | - | - | - |
| 1777602092 | 19.44° C | 87% | 1010.6 hPa | 0 mm | - | - | - |
| 1777601492 | 20° C | 86% | 1010.7 hPa | 0 mm | - | - | - |
| 1777600892 | 20° C | 85% | 1010.7 hPa | 0 mm | - | - | - |
| 1777600291 | 20.56° C | 83% | 1010.6 hPa | 0 mm | - | - | - |
| 1777599692 | 20.56° C | 83% | 1010.5 hPa | 0 mm | - | - | - |
| 1777599091 | 21.11° C | 82% | 1010.4 hPa | 0 mm | - | - | - |
| 1777598492 | 21.11° C | 81% | 1010.1 hPa | 0 mm | - | - | - |
| 1777597891 | 21.67° C | 80% | 1010.1 hPa | 0 mm | - | - | - |
| 1777597291 | 21.67° C | 79% | 1009.9 hPa | 0 mm | - | - | - |
| 1777596692 | 22.22° C | 77% | 1009.9 hPa | 0 mm | - | - | - |
| 1777596092 | 22.22° C | 77% | 1009.6 hPa | 0 mm | - | - | - |
| 1777595492 | 23.33° C | 74% | 1009.5 hPa | 0 mm | - | - | - |
* Rain latest hour (hover to see other rain measurements)
** Current wind speed in m/s (hover to see current wind gust speed)